Regional Weather Roundup
Issued by NWS Columbia, SC

Home | Current Version | Previous Version | Text Only | Print | Product List | Glossary On
Versions: 1 2 3 4 5 6 7 8 9 10 11 12 13 14 15 16 17 18 19 20 21 22 23 24 25 26 27 28 29 30 31 32 33 34 35 36 37 38 39 40 41 42 43 44 45 46 47 48 49 50
000
ASUS42 KCAE 181210
RWRCAE
REGIONAL WEATHER ROUNDUP
NATIONAL WEATHER SERVICE COLUMBIA SC
700 AM EST THU DEC 18 2014

NOTE: "FAIR" INDICATES FEW OR NO CLOUDS BELOW 12,000 FEET WITH NO
SIGNIFICANT WEATHER AND/OR OBSTRUCTIONS TO VISIBILITY.

NOT ALL STATIONS ARE QUALITY CONTROLLED BY THE NATIONAL
WEATHER SERVICE. USE DATA WITH CAUTION...ESPECIALLY
DEWPOINT OBSERVATIONS.

SCZ001>056-GAZ040-063>065-077-181300-
...UPSTATE SOUTH CAROLINA...

CITY           SKY/WX    TMP DP  RH WIND       PRES   REMARKS
ANDERSON       CLOUDY    34  33  96 NW3       30.14R
6HR MIN TEMP:  32; 6HR MAX TEMP:  37;

LIBERTY        FAIR      31  28  88 MISG      30.13R
6HR MIN TEMP:  28; 6HR MAX TEMP:  63;

SPARTANBURG    FAIR      39  27  60 CALM      30.12R
CLEMSON        CLOUDY    39  35  86 E3        30.13R
6HR MIN TEMP:  38; 6HR MAX TEMP:  42;

GREENVILLE     CLOUDY    44  18  35 NE5       30.14R
6HR MIN TEMP:  38; 6HR MAX TEMP:  45;

GREENWOOD      CLOUDY    34  32  92 N3        30.15R
6HR MIN TEMP:  33; 6HR MAX TEMP:  38;

GREER          MOCLDY    42  22  44 NE3       30.13R
6HR MIN TEMP:  36; 6HR MAX TEMP:  43;

ROCK HILL      MOCLDY    33  32  96 N3        30.14R
6HR MIN TEMP:  32; 6HR MAX TEMP:  35;

CHESTER        FAIR      37  32  81 N5        30.14R WCI  34
LAURENS        FAIR      34  32  93 N6        30.13R WCI  29


...CENTRAL SOUTH CAROLINA...

CITY           SKY/WX    TMP DP  RH WIND       PRES   REMARKS
COLUMBIA APT   CLOUDY    36  32  85 CALM      30.13R
6HR MIN TEMP:  33; 6HR MAX TEMP:  37;

COLUMBIA OWENS CLOUDY    37  34  89 CALM      30.15R
6HR MIN TEMP:  36; 6HR MAX TEMP:  38;

DARLINGTON     MOCLDY    37  32  81 NE6       30.16S WCI  33
6HR MIN TEMP:  34; 6HR MAX TEMP:  39;

FLORENCE       MOCLDY    39  36  89 NE5       30.15R
6HR MIN TEMP:  36; 6HR MAX TEMP:  40;

MCENTIRE ANGB  MOCLDY    33  32  96 CALM      30.14R
6HR MIN TEMP:  31; 6HR MAX TEMP:  35;

ORANGEBURG     PTCLDY    36  34  92 N3        30.13S
6HR MIN TEMP:  34; 6HR MAX TEMP:  39;

SUMTER SHAW    MOCLDY    35  33  90 NE2       30.13R
6HR MIN TEMP:  33; 6HR MAX TEMP:  38;

NEWBERRY       FAIR      37  37 100 NE6       30.16R WCI  33
AIKEN          FAIR      36  36 100 CALM      30.14S
BARNWELL         N/A     34  32  93 CALM      30.14R
CAMDEN         FAIR      39  34  81 CALM      30.15R
LANCASTER      HVY RAIN  36  36 100 NE6       30.13S WCI  31
WINNSBORO      FAIR      39  36  87 E6        30.11S WCI  35


...EASTERN AND COASTAL SOUTH CAROLINA...

CITY           SKY/WX    TMP DP  RH WIND       PRES   REMARKS
MYRTLE BEACH   CLEAR     37  36  93 N7        30.15R WCI  32
N MYRTLE BCH   CLEAR     37  36  96 N5        30.14R WCI  33
6HR MIN TEMP:  35; 6HR MAX TEMP:  45;

CONWAY         FAIR      32  32 100 CALM      30.15R
MARION         FAIR      34  34 100 CALM      30.15S
HARTSVILLE     FAIR      45  32  61 NE7       30.14S
FLORENCE       MOCLDY    39  36  89 NE5       30.15R
6HR MIN TEMP:  36; 6HR MAX TEMP:  40;

DARLINGTON     MOCLDY    37  32  81 NE6       30.16S WCI  33
6HR MIN TEMP:  34; 6HR MAX TEMP:  39;

CHARLESTON APT MOCLDY    40  38  93 CALM      30.14R
6HR MIN TEMP:  39; 6HR MAX TEMP:  44;

MOUNT PLEASANT FAIR      39  39 100 CALM      30.14R FOG
WALTERBORO     PTSUNNY   37 N/A N/A CALM      30.14S
BEAUFORT       MOCLDY    41  39  93 NW3       30.14R
6HR MIN TEMP:  39; 6HR MAX TEMP:  44;



...EASTERN GEORGIA...

CITY           SKY/WX    TMP DP  RH WIND       PRES   REMARKS
AUGUSTA BUSH F PTCLDY    32  32 100 CALM      30.14R FOG
6HR MIN TEMP:  31; 6HR MAX TEMP:  36;

AUGUSTA DANIEL PTCLDY    40  37  89 CALM      30.12F
6HR MIN TEMP:  40; 6HR MAX TEMP:  44;

THOMSON        MOCLDY    35  35 100 CALM      30.17R
6HR MIN TEMP:  34; 6HR MAX TEMP:  37;

WASHINGTON     FAIR      41  41 100 NW3       30.14R
CLAXTON        FAIR      36  36 100 CALM      30.15R
SYLVANIA       PTSUNNY   36  36 100 CALM      30.15R FOG
6HR MIN TEMP:  35; 6HR MAX TEMP:  39;

STATESBORO     MOCLDY    36  36 100 CALM      30.14R
6HR MIN TEMP:  33; 6HR MAX TEMP:  38;

SAVANNAH       MOCLDY    42  37  82 W5        30.16R
6HR MIN TEMP:  39; 6HR MAX TEMP:  45;



...SOUTHERN NORTH CAROLINA...

CITY           SKY/WX    TMP DP  RH WIND       PRES   REMARKS
CHARLOTTE      CLOUDY    40  27  59 NE5       30.13S
6HR MIN TEMP:  30; 6HR MAX TEMP:  40;

MONROE         MOCLDY    37  30  75 NE5       30.13R WCI  33
6HR MIN TEMP:  37; 6HR MAX TEMP:  42;

WADESBORO      PTSUNNY   30  29  94 CALM      30.15S
6HR MIN TEMP:  30; 6HR MAX TEMP:  35;

ROCKINGHAM     MOSUNNY   33  32  94 CALM      30.15S
6HR MIN TEMP:  32; 6HR MAX TEMP:  38;

RUTHERFORDTON  CLOUDY    38  22  51 N6        30.14R WCI  34
6HR MIN TEMP:  35; 6HR MAX TEMP:  42;

ASHEVILLE      CLOUDY    35  29  78 N21       30.15R WCI  24
6HR MIN TEMP:  34; 6HR MAX TEMP:  36;


$$


USA.gov is the U.S. government's official web portal to all federal, state and local government web resources and services.